Simultaneous Nadir Overpasses (SNOs) Predictions

Prediction of SNOs between AQUA and METOP-B Satellite Orbit:

Table of predicted SNOs for the next 14.0 days since TLE Epoch: 11/20/2021
Index Date (AQUA) Time (AQUA) Lat,Lon (AQUA) SZA (AQUA ) Date (METOP-B) Time (METOP-B) Lat,Lon (METOP-B) SZA (METOP-B ) Distance(km) Time Diff (sec)
1 11/21/2021 18:42:32 73.27,-105.25 93.26 11/21/2021 18:41:24 73.22,-107.32 93.24 66.75 68
2 11/21/2021 19:32:07 -73.77, 61.32 86.22 11/21/2021 19:31:55 -73.76, 61.23 86.23 3.11 12
3 11/21/2021 20:21:36 73.84,-131.19 93.86 11/21/2021 20:22:33 73.85,-131.22 93.87 1.65 57
4 11/24/2021 14:16:52 73.51, -39.31 94.09 11/24/2021 14:15:41 73.48, -40.34 94.07 32.82 71
5 11/24/2021 15:06:23 -73.80, 127.70 85.61 11/24/2021 15:06:16 -73.81, 127.77 85.60 2.56 7
6 11/24/2021 15:55:52 73.87, -64.82 94.47 11/24/2021 15:56:55 73.85, -64.80 94.46 1.82 63
7 11/27/2021 09:51:10 73.71, 26.70 94.83 11/27/2021 09:49:57 73.73, 26.65 94.85 2.80 73
8 11/27/2021 10:40:37 -73.79,-165.83 85.09 11/27/2021 10:40:37 -73.82,-165.82 85.06 3.10 0
9 11/27/2021 11:30:06 73.86, 1.65 95.00 11/27/2021 11:31:16 73.86, 1.61 94.99 1.30 70
10 11/30/2021 05:25:25 73.71, 93.15 95.31 11/30/2021 05:24:19 73.73, 93.05 95.34 3.53 66
11 11/30/2021 06:14:53 -73.84, -99.49 84.56 11/30/2021 06:14:59 -73.81, -99.42 84.58 3.36 6
12 11/30/2021 07:04:23 73.97, 67.86 95.59 11/30/2021 07:05:35 74.00, 68.37 95.62 16.36 72
13 12/03/2021 00:59:41 73.77, 159.45 95.81 12/03/2021 00:58:40 73.77, 159.56 95.81 3.43 61
14 12/03/2021 01:49:07 -73.79, -32.94 84.18 12/03/2021 01:49:21 -73.81, -33.02 84.16 3.05 14



Historial Predications of SNOs between AQUA and METOP-B
